G4ZMG Weather Reports


time (UTC)temp
C
wind
direction
speed
KPH
gust
KPH
rain 1hr
cm
rain 24hr
cm
rain mn
cm
humidity
%
barometer
mb
20260510225041 7 8 0.0 0.0 0.00 0.00 0.00 73 1013.7
20260510224026 7 4 0.0 0.0 0.00 0.00 0.00 72 1013.7
20260510223046 7 6 0.0 0.0 0.00 0.00 0.00 70 1013.8
20260510222030 7 358 0.0 0.0 0.00 0.00 0.00 69 1013.8
20260510221005 7 349 0.0 0.0 0.00 0.00 0.00 68 1013.9
20260510220041 7 329 0.0 0.0 0.00 0.00 0.00 67 1013.9
20260510215025 7 6 0.0 0.0 0.00 0.00 0.00 66 1013.9
20260510214005 8 345 0.0 0.0 0.00 0.00 0.00 65 1013.9
20260510213040 8 333 0.0 0.0 0.00 0.00 0.00 63 1014.0
20260510212026 8 339 0.0 0.0 0.00 0.00 0.00 63 1013.8
20260510211002 8 339 0.0 0.0 0.00 0.00 0.00 63 1013.7
20260510210032 8 324 0.0 0.0 0.00 0.00 0.00 63 1013.6
20260510205009 8 321 0.0 0.0 0.00 0.00 0.00 63 1013.7
20260510204033 8 320 0.0 0.0 0.00 0.00 0.00 62 1013.7
20260510203009 9 326 0.0 0.0 0.00 0.00 0.00 62 1013.8
20260510202043 9 18 0.0 0.0 0.00 0.00 0.00 62 1013.8
20260510201023 10 33 0.0 0.0 0.00 0.00 0.00 62 1013.7
20260510200003 10 51 0.0 0.0 0.00 0.00 0.00 59 1013.7
20260510195026 10 52 0.0 0.0 0.00 0.00 0.00 58 1013.8
20260510194004 10 50 0.0 0.0 0.00 0.00 0.00 57 1013.7
20260510193038 11 49 0.0 0.0 0.00 0.00 0.00 57 1013.8
20260510192029 11 38 0.0 0.0 0.00 0.00 0.00 55 1013.8
20260510191005 11 22 0.0 3.2 0.00 0.00 0.00 54 1013.9
20260510190010 11 79 0.0 3.2 0.00 0.00 0.00 54 1014.0
20260510185044 11 31 0.0 3.2 0.00 0.00 0.00 54 1014.0
20260510184034 11 20 0.0 0.0 0.00 0.00 0.00 55 1014.1
20260510183028 12 30 0.0 6.4 0.00 0.00 0.00 54 1014.1
20260510182009 12 39 0.0 4.8 0.00 0.00 0.00 54 1014.0
20260510181004 12 91 0.0 8.0 0.00 0.00 0.00 53 1014.0
20260510180019 12 82 0.0 8.0 0.00 0.00 0.00 52 1013.9
20260510175043 12 59 0.0 16.1 0.00 0.00 0.00 51 1013.9
20260510174026 13 37 3.2 12.9 0.00 0.00 0.00 49 1014.0
20260510173004 13 70 0.0 11.3 0.00 0.00 0.00 50 1013.9
20260510172039 13 97 0.0 3.2 0.00 0.00 0.00 48 1014.1
20260510171024 13 81 0.0 17.7 0.00 0.00 0.00 49 1014.2
20260510170011 13 98 0.0 14.5 0.00 0.00 0.00 51 1014.3
20260510165039 13 75 0.0 6.4 0.00 0.00 0.00 50 1014.3
20260510164022 13 74 0.0 4.8 0.00 0.00 0.00 54 1014.4
20260510163003 13 64 0.0 11.3 0.00 0.00 0.00 50 1014.6
20260510162028 14 39 0.0 14.5 0.00 0.00 0.00 49 1014.7
20260510161003 15 31 0.0 8.0 0.00 0.00 0.00 48 1014.7
20260510160041 15 350 1.6 6.4 0.00 0.00 0.00 49 1014.8
20260510155027 15 35 0.0 16.1 0.00 0.00 0.00 49 1014.8
20260510154005 13 5 0.0 4.8 0.00 0.00 0.00 51 1015.0
20260510153041 13 108 3.2 12.9 0.00 0.00 0.00 52 1015.0
20260510152024 15 62 1.6 9.7 0.00 0.00 0.00 51 1015.2
20260510151002 13 69 0.0 12.9 0.00 0.00 0.00 51 1015.3
20260510150027 15 33 0.0 14.5 0.00 0.00 0.00 51 1015.4
20260510145045 13 33 0.0 6.4 0.00 0.00 0.00 55 1015.5
20260510144031 14 58 0.0 9.7 0.00 0.00 0.00 52 1015.6
20260510143011 13 18 0.0 11.3 0.00 0.00 0.00 53 1015.9
20260510142041 13 143 1.6 12.9 0.00 0.00 0.00 56 1015.9
20260510141028 13 39 0.0 17.7 0.00 0.00 0.00 55 1016.0
20260510140046 13 77 0.0 14.5 0.00 0.00 0.00 56 1016.1
20260510135023 14 56 17.7 17.7 0.00 0.00 0.00 57 1016.1
20260510134004 13 72 0.0 14.5 0.00 0.00 0.00 59 1016.2
20260510133039 13 75 0.0 16.1 0.00 0.00 0.00 59 1016.2
20260510132028 13 70 3.2 16.1 0.00 0.00 0.00 59 1016.4
20260510131010 12 99 0.0 11.3 0.00 0.00 0.00 63 1016.4
20260510130031 13 66 0.0 17.7 0.00 0.00 0.00 62 1016.4
20260510125006 12 99 3.2 17.7 0.00 0.00 0.00 64 1016.6
20260510124041 13 55 0.0 17.7 0.00 0.00 0.00 65 1016.8
20260510123026 12 56 0.0 16.1 0.00 0.00 0.00 66 1017.0
20260510122011 11 353 0.0 14.5 0.00 0.00 0.00 67 1017.0
20260510121004 11 14 0.0 19.3 0.00 0.00 0.00 68 1017.1
20260510120041 11 53 0.0 17.7 0.00 0.00 0.00 68 1017.1
20260510115024 11 10 11.3 16.1 0.00 0.00 0.00 70 1017.6
20260510114047 11 10 0.0 22.5 0.00 0.00 0.00 69 1017.6
20260510113029 11 49 0.0 22.5 0.00 0.00 0.00 70 1017.7
20260510112011 11 52 0.0 11.3 0.00 0.00 0.00 69 1017.9
20260510111002 11 79 0.0 14.5 0.00 0.00 0.00 71 1018.0
20260510110045 10 6 0.0 16.1 0.00 0.00 0.00 72 1018.0
20260510105029 10 79 0.0 14.5 0.00 0.00 0.00 73 1018.1
20260510104008 10 343 0.0 20.9 0.00 0.00 0.00 74 1018.1
20260510103043 10 85 1.6 16.1 0.00 0.00 0.00 75 1018.3
20260510102036 9 80 0.0 12.9 0.00 0.00 0.00 77 1018.3
20260510101024 9 64 0.0 11.3 0.00 0.00 0.00 77 1018.4
20260510100032 9 19 0.0 14.5 0.00 0.00 0.00 78 1018.5
20260510095008 9 44 0.0 19.3 0.00 0.00 0.00 78 1018.6
20260510094043 9 20 0.0 19.3 0.00 0.00 0.00 79 1018.4
20260510093024 9 54 0.0 17.7 0.00 0.00 0.00 79 1018.7
20260510092006 8 68 0.0 22.5 0.00 0.00 0.00 79 1018.6
20260510091042 9 348 0.0 17.7 0.00 0.00 0.00 80 1018.7
20260510090048 8 10 8.0 17.7 0.00 0.00 0.00 81 1018.8
20260510085039 8 25 8.0 17.7 0.00 0.00 0.00 81 1018.8
20260510084034 8 25 0.0 17.7 0.00 0.00 0.00 82 1018.9
20260510083027 8 0.0 0.0 0.00 0.00 0.00 83 1018.8
20260510082010 -17 0.0 0.0 0.00 0.00 0.00 1018.8
20260510081046 -17 0.0 0.0 0.00 0.00 0.00 1018.8
20260510080011 8 79 0.0 16.1 0.00 0.00 0.00 85 1018.8
20260510075042 8 54 9.7 16.1 0.00 0.00 0.00 85 1018.8
20260510074030 7 353 0.0 19.3 0.00 0.00 0.00 86 1018.8
20260510073000 7 27 12.9 19.3 0.00 0.00 0.00 86 1018.9
20260510072031 7 84 0.0 17.7 0.00 0.00 0.00 86 1018.7
20260510071010 7 58 0.0 17.7 0.00 0.00 0.00 87 1018.8
20260510070046 7 31 0.0 20.9 0.00 0.00 0.00 87 1018.8
20260510065029 7 51 0.0 22.5 0.00 0.00 0.00 87 1018.7
20260510064003 7 39 1.6 16.1 0.00 0.00 0.00 87 1018.6
20260510063032 7 355 0.0 14.5 0.00 0.00 0.00 87 1018.6
20260510062011 7 359 9.7 19.3 0.00 0.00 0.00 88 1018.6
20260510061002 7 16 0.0 19.3 0.00 0.00 0.00 88 1018.5
20260510060024 7 56 0.0 14.5 0.00 0.00 0.00 88 1018.5
20260510055044 7 25 9.7 16.1 0.00 0.00 0.00 89 1018.4
20260510054028 7 33 14.5 22.5 0.00 0.00 0.00 89 1018.4
20260510053009 7 353 0.0 24.1 0.00 0.00 0.00 89 1018.3
20260510052045 8 47 0.0 16.1 0.00 0.00 0.00 89 1018.4
20260510051028 8 64 0.0 16.1 0.00 0.00 0.00 89 1018.5
20260510050043 8 7 1.6 14.5 0.00 0.00 0.00 90 1018.5
20260510045023 8 61 0.0 14.5 0.00 0.00 0.00 90 1018.5
20260510044004 8 15 14.5 19.3 0.00 0.00 0.00 90 1018.4
20260510043036 8 70 0.0 14.5 0.00 0.00 0.00 90 1018.5
20260510042031 8 52 0.0 22.5 0.00 0.00 0.00 90 1018.5
20260510041019 8 28 0.0 24.1 0.00 0.00 0.00 90 1018.6
20260510040039 8 13 0.0 17.7 0.00 0.00 0.00 90 1018.6
20260510035020 8 4 0.0 16.1 0.00 0.00 0.00 90 1018.6
20260510034044 8 35 0.0 17.7 0.00 0.00 0.00 90 1018.5
20260510033030 8 311 0.0 17.7 0.00 0.00 0.00 90 1018.6
20260510032020 8 65 4.8 16.1 0.00 0.00 0.00 90 1018.6
20260510031004 8 57 0.0 24.1 0.00 0.00 0.00 90 1018.6
20260510030006 8 56 6.4 22.5 0.00 0.00 0.00 89 1018.8
20260510025033 8 45 0.0 22.5 0.00 0.00 0.00 89 1018.8
20260510024021 8 4 0.0 24.1 0.00 0.00 0.00 89 1018.6
20260510023005 8 31 0.0 24.1 0.00 0.00 0.00 89 1018.7
20260510022045 8 64 0.0 17.7 0.00 0.00 0.00 89 1018.6
20260510021033 8 29 0.0 16.1 0.00 0.00 0.00 89 1018.7
20260510020024 8 36 11.3 12.9 0.00 0.00 0.00 89 1018.6
20260510015043 8 45 0.0 16.1 0.00 0.00 0.00 89 1018.7
20260510014036 8 339 0.0 19.3 0.00 0.00 0.00 89 1018.7
20260510013023 9 33 0.0 16.1 0.00 0.00 0.00 89 1018.7
20260510012046 9 60 0.0 17.7 0.00 0.00 0.00 88 1018.8
20260510011027 9 49 11.3 16.1 0.00 0.00 0.00 88 1018.8
20260510010007 9 45 0.0 17.7 0.00 0.00 0.00 88 1018.8
20260510005032 9 18 14.5 19.3 0.00 0.00 0.00 87 1018.7
20260510004017 9 22 0.0 14.5 0.00 0.00 0.00 87 1018.3
20260510003045 9 33 11.3 17.7 0.00 0.00 0.00 86 1018.3
20260510002035 9 56 1.6 19.3 0.00 0.00 0.00 86 1018.3
20260510001012 9 6 0.0 14.5 0.00 0.00 0.00 85 1018.4
20260510000005 10 46 0.0 17.7 0.00 0.00 0.00 85 1018.4
20260509235046 10 15 1.6 24.1 0.00 0.00 0.00 85 1018.6
20260509234037 10 21 6.4 19.3 0.00 0.00 0.00 84 1018.6
20260509233030 10 29 0.0 16.1 0.00 0.00 0.00 84 1018.7
20260509232024 10 40 0.0 17.7 0.00 0.00 0.00 84 1018.7
20260509231011 10 36 0.0 16.1 0.00 0.00 0.00 84 1018.5
20260509230047 10 22 1.6 17.7 0.00 0.00 0.00 84 1018.5